TimeCST,TemperatureF,Dew PointF,Humidity,Sea Level PressureIn,VisibilityMPH,Wind Direction,Wind SpeedMPH,Gust SpeedMPH,PrecipitationIn,Events,Conditions,WindDirDegrees,DateUTC
12:15 AM,62.6,55.4,77,30.31,1.2,SSE,10.4,-,N/A,,Haze,160,2014-01-25 06:15:00
12:35 AM,62.6,57.2,82,30.31,1.0,SSE,8.1,15.0,N/A,,Haze,150,2014-01-25 06:35:00
12:55 AM,62.6,57.2,82,30.30,0.8,SE,10.4,-,N/A,,Haze,140,2014-01-25 06:55:00
1:15 AM,62.6,57.2,82,30.29,0.8,South,10.4,-,N/A,,Haze,170,2014-01-25 07:15:00
1:35 AM,62.6,57.2,82,30.29,1.0,SSE,9.2,-,N/A,,Haze,150,2014-01-25 07:35:00
1:55 AM,62.6,57.2,82,30.28,1.2,SE,5.8,-,N/A,,Haze,140,2014-01-25 07:55:00
2:15 AM,62.6,57.2,82,30.28,0.8,South,8.1,-,N/A,,Haze,180,2014-01-25 08:15:00
2:35 AM,62.6,59.0,88,30.26,1.8,South,10.4,-,N/A,,Overcast,180,2014-01-25 08:35:00
2:55 AM,62.6,59.0,88,30.26,1.8,South,11.5,-,N/A,,Overcast,170,2014-01-25 08:55:00
3:15 AM,62.6,59.0,88,30.25,2.0,South,12.7,-,N/A,,Overcast,180,2014-01-25 09:15:00
3:35 AM,62.6,59.0,88,30.24,2.0,South,10.4,-,N/A,,Overcast,180,2014-01-25 09:35:00
3:55 AM,62.6,59.0,88,30.24,2.5,South,10.4,-,N/A,,Overcast,180,2014-01-25 09:55:00
4:15 AM,62.6,59.0,88,30.23,3.0,South,10.4,-,N/A,,Overcast,180,2014-01-25 10:15:00
4:35 AM,64.4,60.8,88,30.23,3.0,Calm,Calm,-,N/A,,Overcast,0,2014-01-25 10:35:00
4:55 AM,64.4,60.8,88,30.22,3.0,Calm,Calm,-,N/A,,Overcast,0,2014-01-25 10:55:00
5:15 AM,64.4,60.8,88,30.22,3.0,Calm,Calm,-,N/A,,Haze,0,2014-01-25 11:15:00
5:35 AM,64.4,60.8,88,30.22,1.8,Calm,Calm,-,N/A,,Haze,0,2014-01-25 11:35:00
5:55 AM,64.4,60.8,88,30.23,1.0,Variable,4.6,12.7,N/A,,Overcast,0,2014-01-25 11:55:00
6:15 AM,64.4,60.8,88,30.22,1.8,West,19.6,-,N/A,,Overcast,270,2014-01-25 12:15:00
6:35 AM,64.4,60.8,88,30.23,0.8,NW,21.9,-,N/A,,Overcast,310,2014-01-25 12:35:00
6:55 AM,64.4,60.8,88,30.23,1.0,NW,21.9,-,N/A,,Overcast,320,2014-01-25 12:55:00
7:15 AM,64.4,60.8,88,30.23,1.2,NW,23.0,-,N/A,,Overcast,320,2014-01-25 13:15:00
7:35 AM,62.6,60.8,94,30.24,3.0,NNW,23.0,-,N/A,,Overcast,330,2014-01-25 13:35:00
7:55 AM,62.6,59.0,88,30.24,3.0,NW,23.0,-,N/A,,Overcast,320,2014-01-25 13:55:00
8:15 AM,62.6,59.0,88,30.25,2.0,NW,21.9,-,N/A,,Overcast,320,2014-01-25 14:15:00
8:35 AM,62.6,59.0,88,30.26,1.0,NNW,20.7,-,N/A,,Overcast,330,2014-01-25 14:35:00
8:55 AM,62.6,59.0,88,30.26,4.0,NNW,18.4,-,N/A,,Haze,330,2014-01-25 14:55:00
9:15 AM,62.6,57.2,82,30.26,3.0,NW,18.4,-,N/A,,Haze,320,2014-01-25 15:15:00
9:35 AM,62.6,57.2,82,30.27,3.0,NW,18.4,-,N/A,,Haze,320,2014-01-25 15:35:00
9:55 AM,62.6,57.2,82,30.28,3.0,NW,17.3,-,N/A,,Haze,320,2014-01-25 15:55:00
10:15 AM,62.6,57.2,82,30.28,4.0,NW,19.6,-,N/A,,Haze,320,2014-01-25 16:15:00
10:35 AM,62.6,55.4,77,30.27,3.0,NNW,17.3,-,N/A,,Haze,330,2014-01-25 16:35:00
10:55 AM,62.6,55.4,77,30.27,4.0,NW,16.1,-,N/A,,Haze,320,2014-01-25 16:55:00
11:15 AM,62.6,55.4,77,30.27,3.0,NW,16.1,-,N/A,,Haze,310,2014-01-25 17:15:00
11:35 AM,62.6,55.4,77,30.26,3.0,NW,17.3,-,N/A,,Haze,310,2014-01-25 17:35:00
11:55 AM,62.6,55.4,77,30.25,4.0,NW,18.4,-,N/A,,Haze,310,2014-01-25 17:55:00
12:15 PM,60.8,53.6,77,30.23,3.0,NW,17.3,-,N/A,,Haze,310,2014-01-25 18:15:00
12:35 PM,62.6,53.6,72,30.23,3.0,NW,19.6,-,N/A,,Haze,310,2014-01-25 18:35:00
12:55 PM,62.6,53.6,72,30.21,3.0,NW,18.4,-,N/A,,Haze,310,2014-01-25 18:55:00
1:15 PM,60.8,53.6,77,30.20,3.0,NW,18.4,-,N/A,,Haze,320,2014-01-25 19:15:00
1:35 PM,60.8,51.8,72,30.20,3.0,NW,18.4,-,N/A,,Haze,320,2014-01-25 19:35:00
1:55 PM,60.8,51.8,72,30.19,3.0,NW,17.3,-,N/A,,Haze,310,2014-01-25 19:55:00
2:15 PM,60.8,51.8,72,30.18,3.0,NW,15.0,-,N/A,,Haze,310,2014-01-25 20:15:00
2:35 PM,60.8,51.8,72,30.18,3.0,WNW,15.0,-,N/A,,Haze,300,2014-01-25 20:35:00
2:55 PM,60.8,51.8,72,30.18,4.0,WNW,16.1,-,N/A,,Haze,300,2014-01-25 20:55:00
3:15 PM,60.8,51.8,72,30.17,4.0,WNW,17.3,-,N/A,,Haze,290,2014-01-25 21:15:00
3:35 PM,60.8,51.8,72,30.17,4.0,WNW,16.1,-,N/A,,Haze,300,2014-01-25 21:35:00
3:55 PM,60.8,51.8,72,30.17,4.0,WNW,19.6,-,N/A,,Haze,300,2014-01-25 21:55:00
4:15 PM,60.8,51.8,72,30.17,4.0,WNW,17.3,-,N/A,,Haze,300,2014-01-25 22:15:00
4:35 PM,60.8,51.8,72,30.17,4.0,WNW,18.4,-,N/A,,Haze,290,2014-01-25 22:35:00
4:55 PM,60.8,51.8,72,30.17,5.0,WNW,16.1,21.9,N/A,,Haze,300,2014-01-25 22:55:00
5:15 PM,60.8,51.8,72,30.17,3.0,WNW,15.0,-,N/A,,Haze,300,2014-01-25 23:15:00
5:35 PM,60.8,51.8,72,30.17,4.0,WNW,17.3,-,N/A,,Haze,300,2014-01-25 23:35:00
5:55 PM,60.8,51.8,72,30.18,5.0,WNW,18.4,-,N/A,,Haze,290,2014-01-25 23:55:00
6:15 PM,60.8,51.8,72,30.19,5.0,WNW,16.1,23.0,N/A,,Haze,290,2014-01-26 00:15:00
6:35 PM,62.6,51.8,68,30.18,5.0,West,16.1,-,N/A,,Haze,280,2014-01-26 00:35:00
6:55 PM,62.6,51.8,68,30.19,5.0,West,19.6,-,N/A,,Haze,280,2014-01-26 00:55:00
7:15 PM,62.6,51.8,68,30.19,5.0,WNW,17.3,-,N/A,,Haze,290,2014-01-26 01:15:00
7:35 PM,62.6,51.8,68,30.19,5.0,WNW,17.3,-,N/A,,Haze,290,2014-01-26 01:35:00
7:55 PM,62.6,51.8,68,30.19,6.0,West,16.1,24.2,N/A,,Haze,280,2014-01-26 01:55:00
8:15 PM,62.6,51.8,68,30.19,5.0,West,12.7,19.6,N/A,,Haze,270,2014-01-26 02:15:00
8:35 PM,62.6,51.8,68,30.19,5.0,West,12.7,19.6,N/A,,Haze,280,2014-01-26 02:35:00
8:55 PM,62.6,51.8,68,30.19,5.0,West,16.1,-,N/A,,Haze,280,2014-01-26 02:55:00
9:15 PM,64.4,50.0,59,30.19,6.0,WNW,13.8,19.6,N/A,,Haze,290,2014-01-26 03:15:00
9:35 PM,64.4,51.8,64,30.19,5.0,WNW,15.0,-,N/A,,Haze,300,2014-01-26 03:35:00
9:55 PM,62.6,51.8,68,30.19,5.0,West,11.5,17.3,N/A,,Haze,280,2014-01-26 03:55:00
10:15 PM,62.6,50.0,63,30.18,5.0,West,16.1,-,N/A,,Haze,280,2014-01-26 04:15:00
10:35 PM,62.6,50.0,63,30.18,5.0,WNW,13.8,-,N/A,,Haze,290,2014-01-26 04:35:00
10:55 PM,62.6,50.0,63,30.18,5.0,WNW,9.2,16.1,N/A,,Haze,300,2014-01-26 04:55:00
11:15 PM,62.6,50.0,63,30.17,5.0,WNW,16.1,-,N/A,,Haze,290,2014-01-26 05:15:00
11:35 PM,62.6,50.0,63,30.15,4.0,NW,6.9,-,N/A,,Haze,310,2014-01-26 05:35:00
11:55 PM,64.4,50.0,59,30.15,5.0,WNW,11.5,-,N/A,,Haze,300,2014-01-26 05:55:00